Lid_Strength_Index
4 4 3 3 3 3 3 3 2 2 2 2 1 0 -0 -0 -0 3 5 2 1 -2 -1 1 1 4 3 5 5 5 12 12 10 10 9 6 7 6 5 6 6 5 5 4 2
4 4 3 3 3 3 3 2 2 2 1 1 1 1 -1 -2 1 4 1 -1 -1 -2 1 3 4 5 6 6 6 9 12 12 7 7 9 8 7 7 7 7 7 6 4 3 3
4 4 3 3 3 3 3 2 2 1 1 1 -0 -2 -2 -1 4 3 -2 -2 -2 -2 1 2 3 5 7 7 8 8 12 9 8 7 6 7 8 7 7 8 6 7 6 4 4
4 4 3 3 3 3 3 2 2 1 1 -0 -2 -2 -2 1 10 2 -2 -2 -1 -0 1 3 4 7 9 10 7 11 8 8 8 7 7 8 6 7 7 7 5 5 4 4 4
4 4 3 3 3 3 3 2 2 1 1 -1 -2 -2 0 5 5 -0 -2 -2 -0 1 3 4 6 6 9 8 8 10 9 7 7 7 7 6 7 7 8 6 4 4 4 5 4
4 4 4 3 3 3 3 2 2 1 1 -0 -2 -2 2 8 -0 -1 -0 0 1 2 3 4 5 5 7 8 9 8 8 8 7 7 7 8 8 8 8 7 5 5 5 5 5
4 4 4 3 3 3 3 2 1 2 1 -1 -2 0 4 5 -0 -1 -0 1 1 3 4 3 3 6 6 9 6 7 10 9 8 8 8 7 9 10 8 8 7 6 5 5 4
4 4 4 3 3 3 2 2 2 2 1 -2 -2 1 6 0 -1 0 0 2 1 1 2 2 2 5 6 6 7 9 10 14 9 9 9 9 13 9 7 8 8 6 6 5 5
4 4 4 3 3 3 2 3 2 2 -0 -2 1 3 7 -0 3 2 1 3 2 2 2 2 3 6 6 9 11 10 15 13 11 9 10 11 13 9 8 8 9 9 6 5 5
5 4 4 4 4 3 3 2 2 1 2 -0 2 5 4 6 3 3 2 2 4 4 5 5 8 10 10 11 17 14 13 12 12 10 9 12 12 9 8 9 10 10 9 6 5
4 5 4 4 4 3 5 6 8 8 6 7 7 7 6 3 2 4 3 3 4 6 10 8 11 13 11 9 9 10 11 12 10 8 10 11 12 10 9 11 11 10 10 7 6
4 4 4 4 4 4 5 9 9 7 10 6 5 5 5 3 7 5 4 7 8 11 8 10 13 10 8 8 9 10 11 11 10 9 11 11 12 11 10 10 10 10 10 10 6
5 4 4 4 4 5 7 8 5 5 10 8 5 6 6 5 7 7 5 6 9 10 10 12 11 9 9 10 10 11 11 12 11 10 10 12 14 13 11 9 9 10 9 10 9
5 5 5 4 6 6 7 5 4 4 13 13 10 8 6 5 8 5 4 8 8 10 9 9 8 9 10 11 10 12 9 9 11 12 16 12 18 13 11 12 11 10 10 10 10
4 4 4 5 7 8 7 5 4 6 22 13 11 5 5 8 7 7 5 7 11 11 10 11 10 10 11 10 9 11 9 10 10 12 13 14 18 15 11 13 12 11 10 10 9
4 5 5 6 5 6 5 5 6 15 25 15 10 11 9 8 8 7 7 6 8 10 9 10 8 9 10 9 8 8 10 10 11 13 19 14 17 17 14 13 12 11 10 10 10
5 6 6 6 9 5 5 7 15 22 14 18 14 11 10 11 10 9 10 11 13 15 15 12 11 9 9 11 10 10 12 19 20 20 20 14 16 16 12 12 12 12 13 13 12
5 6 6 6 6 6 7 12 22 20 19 13 13 11 12 11 11 10 11 13 10 12 14 16 18 11 9 11 13 12 12 17 22 21 19 14 18 16 13 12 11 11 12 12 12
5 7 7 6 5 7 10 19 21 19 14 15 13 15 14 12 11 11 13 13 11 11 15 16 16 10 9 9 10 12 15 12 16 19 18 16 15 13 11 12 12 12 11 12 12
8 9 9 6 6 8 13 18 19 14 13 13 18 15 16 14 14 13 13 12 12 10 10 12 17 12 10 9 9 11 10 16 17 23 22 18 17 17 14 13 13 14 13 12 11
8 13 9 7 6 12 17 19 18 13 12 14 15 16 14 14 13 13 13 12 11 11 10 10 13 14 11 13 13 12 14 13 14 16 19 20 19 15 14 13 14 13 12 13 12
10 16 8 7 14 15 16 18 14 14 11 14 13 13 14 13 13 13 14 13 10 10 13 11 13 16 14 10 9 11 12 12 17 18 17 17 18 13 13 13 13 13 12 12 12
15 14 8 8 16 17 19 19 15 15 13 13 15 13 12 14 16 13 13 10 10 10 12 11 14 19 17 13 10 13 12 11 12 13 17 19 18 12 12 13 13 13 12 11 11
14 16 14 12 13 15 18 19 19 13 13 12 13 12 13 15 14 17 13 11 10 9 9 9 12 15 18 16 12 15 12 12 13 17 16 15 15 13 13 12 12 12 12 12 10
15 16 16 17 17 15 16 17 18 19 13 12 14 14 14 19 16 17 14 12 10 9 10 11 16 15 14 13 12 12 12 12 14 13 16 14 13 11 11 12 12 11 11 11 10
16 16 15 16 15 16 16 19 17 15 15 16 15 13 14 16 15 18 14 14 13 10 12 10 18 15 18 13 13 15 13 12 12 12 12 12 13 9 8 10 10 10 9 9 9
10 10 12 15 15 16 16 16 16 14 13 12 13 14 14 13 11 11 10 11 11 13 15 14 13 18 20 15 16 21 15 13 12 11 11 14 11 9 10 9 9 8 8 9 8